Weather History for Hanford, CA

Change the Weather History Date:

Sunday, April 14, 2013

  Actual Average Record
Temperature  
Mean Temperature 66 °F 60 °F  
Max Temperature 79 °F 74 °F 91 °F (2002)
Min Temperature 52 °F 46 °F 37 °F (2011)
Degree Days  
Heating Degree Days 0    
Month to date heating degree days 31  
Since 1 July heating degree days 2277  
Cooling Degree Days 1    
Month to date cooling degree days 2  
Year to date cooling degree days 8  
Growing Degree Days 16 (Base 50)    
Moisture  
Dew Point 38 °F    
Average Humidity 44    
Maximum Humidity 71    
Minimum Humidity 16    
Precipitation  
Precipitation 0.00 in 0.02 in 0.25 in (2003)
Month to date precipitation 0.08 0.35  
Year to date precipitation 1.42 5.75  
Since 1 July precipitation 3.42 9.09  
Snow  
Snow 0.00 in - - ()
Month to date snowfall 0.0  
Since 1 July snowfall 0.0  
Snow Depth 0.00 in    
Sea Level Pressure  
Sea Level Pressure 29.82 in    
Wind  
Wind Speed 12 mph (NW)    
Max Wind Speed 21 mph    
Max Gust Speed 25 mph    
Visibility 10 miles    
Events      
T = Trace of Precipitation, MM = Missing Value Source: NWS Daily Summary

Daily Weather History Graph

Daily Weather History Graph

Search for Another Location

Airport:

Trip Planner

Search our weather history database for the weather conditions in past years. The results will help you decide how hot, cold, wet, or windy it might be!

Date:

Astronomy

Apr. 14, 2013 Rise Set
Actual Time 6:25 AM PDT 7:31 PM PDT
Civil Twilight 5:59 AM PDT 7:58 PM PDT
Nautical Twilight 5:27 AM PDT 8:30 PM PDT
Astronomical Twilight 4:55 AM PDT 9:02 PM PDT
Moon 9:11 AM PDT (4/14) 11:43 PM PDT (4/14)
Length of Visible Light 13h 59m
Length of Day
13h 06m
Waxing Crescent, 18% of the Moon is Illuminated
Apr 14
Waxing Crescent
Apr 18
First Quarter
Apr 25
Full
May 2
Last Quarter
May 9
New

Hourly Weather History & Observations

Time (PDT) Temp. Dew Point Humidity Pressure Visibility Wind Dir Wind Speed Gust Speed Precip Events Conditions
12:53 AM 62.1 °F 43.0 °F 50% 29.80 in 10.0 mi NW 12.7 mph - N/A   Clear
1:53 AM 60.1 °F 42.1 °F 51% 29.81 in 10.0 mi NW 10.4 mph - N/A   Clear
2:53 AM 57.9 °F 42.1 °F 56% 29.81 in 10.0 mi NNW 9.2 mph - N/A   Clear
3:53 AM 55.9 °F 42.1 °F 60% 29.80 in 10.0 mi NW 9.2 mph - N/A   Clear
4:53 AM 55.0 °F 42.1 °F 62% 29.81 in 10.0 mi NW 5.8 mph - N/A   Clear
5:53 AM 53.1 °F 42.1 °F 66% 29.82 in 10.0 mi NNW 9.2 mph - N/A   Clear
6:53 AM 52.0 °F 42.1 °F 69% 29.84 in 10.0 mi NNW 6.9 mph - N/A   Clear
7:53 AM 55.0 °F 42.1 °F 62% 29.86 in 10.0 mi NNW 9.2 mph 17.3 mph N/A   Clear
8:53 AM 60.1 °F 39.0 °F 46% 29.87 in 10.0 mi WNW 16.1 mph 20.7 mph N/A   Clear
9:53 AM 63.0 °F 39.0 °F 41% 29.88 in 10.0 mi NW 10.4 mph 18.4 mph N/A   Clear
10:53 AM 66.0 °F 39.9 °F 38% 29.88 in 10.0 mi NNW 15.0 mph 20.7 mph N/A   Clear
11:53 AM 70.0 °F 41.0 °F 35% 29.87 in 10.0 mi North 13.8 mph 18.4 mph N/A   Clear
12:53 PM 72.0 °F 43.0 °F 35% 29.85 in 10.0 mi WNW 9.2 mph 17.3 mph N/A   Clear
1:53 PM 75.0 °F 39.0 °F 27% 29.83 in 10.0 mi NNW 12.7 mph - N/A   Clear
2:53 PM 78.1 °F 35.1 °F 21% 29.81 in 10.0 mi NNW 12.7 mph 24.2 mph N/A   Clear
3:53 PM 79.0 °F 30.9 °F 17% 29.78 in 10.0 mi NNW 15.0 mph 23.0 mph N/A   Clear
4:53 PM 78.1 °F 28.0 °F 16% 29.77 in 10.0 mi NNW 17.3 mph 24.2 mph N/A   Clear
5:53 PM 78.1 °F 28.9 °F 17% 29.77 in 10.0 mi NW 18.4 mph 24.2 mph N/A   Clear
6:53 PM 73.9 °F 30.9 °F 21% 29.77 in 10.0 mi NW 15.0 mph 23.0 mph N/A   Clear
7:53 PM 69.1 °F 33.1 °F 26% 29.77 in 10.0 mi NNW 8.1 mph - N/A   Clear
8:53 PM 68.0 °F 34.0 °F 28% 29.79 in 10.0 mi West 4.6 mph - N/A   Clear
9:53 PM 64.0 °F 37.0 °F 37% 29.81 in 10.0 mi NNW 12.7 mph - N/A   Clear
10:53 PM 62.1 °F 39.0 °F 43% 29.81 in 10.0 mi NW 15.0 mph - N/A   Clear
11:53 PM 61.0 °F 39.9 °F 46% 29.81 in 10.0 mi NW 15.0 mph 25.3 mph N/A   Clear